| time (UTC) | temp F | wind direction | speed MPH | gust MPH | rain 1hr in | rain 24hr in | rain mn in | humidity % | barometer mb |
| 20260906223017 | 100 | 110 | 4.0 | 7.0 | 0.00 | 0.00 | 0.00 | 39 | 1012.7 |
| 20260906222021 | 100 | 97 | 7.0 | 11.0 | 0.00 | 0.00 | 0.00 | 39 | 1012.8 |
| 20260906221024 | 100 | 124 | 4.0 | 6.0 | 0.00 | 0.00 | 0.00 | 40 | 1012.9 |
| 20260906220022 | 100 | 126 | 4.0 | 9.0 | 0.00 | 0.00 | 0.00 | 41 | 1012.9 |
| 20260906215018 | 100 | 90 | 8.0 | 11.0 | 0.00 | 0.00 | 0.00 | 40 | 1013.1 |
| 20260906214016 | 102 | 80 | 6.0 | 9.0 | 0.00 | 0.00 | 0.00 | 40 | 1013.2 |
| 20260906213019 | 101 | 100 | 5.0 | 8.0 | 0.00 | 0.00 | 0.00 | 41 | 1013.2 |
| 20260906212043 | 99 | 106 | 7.0 | 11.0 | 0.00 | 0.00 | 0.00 | 42 | 1013.3 |
| 20260906211026 | 100 | 90 | 8.0 | 12.0 | 0.00 | 0.00 | 0.00 | 41 | 1013.4 |
| 20260906210029 | 100 | 96 | 6.0 | 12.0 | 0.00 | 0.00 | 0.00 | 41 | 1013.6 |
| 20260906205027 | 99 | 85 | 7.0 | 9.0 | 0.00 | 0.00 | 0.00 | 43 | 1013.6 |
| 20260906204030 | 99 | 68 | 6.0 | 10.0 | 0.00 | 0.00 | 0.00 | 42 | 1013.7 |
| 20260906203015 | 101 | 94 | 7.0 | 11.0 | 0.00 | 0.00 | 0.00 | 40 | 1013.8 |
| 20260906202019 | 102 | 103 | 6.0 | 11.0 | 0.00 | 0.00 | 0.00 | 40 | 1013.9 |
| 20260906201022 | 101 | 115 | 6.0 | 10.0 | 0.00 | 0.00 | 0.00 | 40 | 1014.1 |
| 20260906200025 | 101 | 115 | 4.0 | 7.0 | 0.00 | 0.00 | 0.00 | 42 | 1014.2 |
| 20260906195033 | 100 | 109 | 6.0 | 8.0 | 0.00 | 0.00 | 0.00 | 42 | 1014.2 |
| 20260906194052 | 100 | 76 | 5.0 | 9.0 | 0.00 | 0.00 | 0.00 | 42 | 1014.4 |
| 20260906193037 | 98 | 81 | 7.0 | 10.0 | 0.00 | 0.00 | 0.00 | 44 | 1014.5 |
| 20260906192101 | 100 | 89 | 6.0 | 10.0 | 0.00 | 0.00 | 0.00 | 42 | 1014.6 |
| 20260906191029 | 100 | 117 | 4.0 | 7.0 | 0.00 | 0.00 | 0.00 | 42 | 1014.7 |
| 20260906190027 | 100 | 124 | 5.0 | 10.0 | 0.00 | 0.00 | 0.00 | 43 | 1014.8 |
| 20260906185031 | 100 | 107 | 5.0 | 7.0 | 0.00 | 0.00 | 0.00 | 44 | 1014.9 |
| 20260906184017 | 100 | 119 | 6.0 | 11.0 | 0.00 | 0.00 | 0.00 | 44 | 1015.1 |
| 20260906183019 | 98 | 116 | 4.0 | 8.0 | 0.00 | 0.00 | 0.00 | 46 | 1015.2 |
| 20260906182027 | 98 | 117 | 4.0 | 12.0 | 0.00 | 0.00 | 0.00 | 46 | 1015.3 |
| 20260906181020 | 99 | 74 | 6.0 | 10.0 | 0.00 | 0.00 | 0.00 | 45 | 1015.4 |
| 20260906180037 | 98 | 130 | 3.0 | 6.0 | 0.00 | 0.00 | 0.00 | 46 | 1015.6 |
| 20260906175032 | 98 | 95 | 4.0 | 7.0 | 0.00 | 0.00 | 0.00 | 48 | 1015.9 |
| 20260906174018 | 98 | 84 | 6.0 | 10.0 | 0.00 | 0.00 | 0.00 | 47 | 1016.1 |
| 20260906173021 | 98 | 100 | 4.0 | 7.0 | 0.00 | 0.00 | 0.00 | 49 | 1016.2 |
| 20260906172024 | 97 | 105 | 5.0 | 8.0 | 0.00 | 0.00 | 0.00 | 50 | 1016.4 |
| 20260906171047 | 95 | 171 | 4.0 | 7.0 | 0.00 | 0.00 | 0.00 | 52 | 1016.6 |
| 20260906170035 | 96 | 79 | 4.0 | 6.0 | 0.00 | 0.00 | 0.00 | 52 | 1016.6 |
| 20260906165016 | 96 | 95 | 5.0 | 10.0 | 0.00 | 0.00 | 0.00 | 52 | 1016.6 |
| 20260906164019 | 94 | 86 | 5.0 | 10.0 | 0.00 | 0.00 | 0.00 | 54 | 1016.6 |
| 20260906163022 | 94 | 102 | 6.0 | 8.0 | 0.00 | 0.00 | 0.00 | 53 | 1016.6 |
| 20260906162126 | 94 | 106 | 5.0 | 8.0 | 0.00 | 0.00 | 0.00 | 54 | 1016.6 |
| 20260906161030 | 95 | 84 | 6.0 | 7.0 | 0.00 | 0.00 | 0.00 | 55 | 1016.6 |
| 20260906160052 | 93 | 112 | 3.0 | 4.0 | 0.00 | 0.00 | 0.00 | 59 | 1016.6 |
| 20260906155017 | 92 | 108 | 3.0 | 5.0 | 0.00 | 0.00 | 0.00 | 61 | 1016.8 |
| 20260906154021 | 91 | 105 | 3.0 | 5.0 | 0.00 | 0.00 | 0.00 | 62 | 1016.6 |
| 20260906153024 | 91 | 92 | 4.0 | 6.0 | 0.00 | 0.00 | 0.00 | 62 | 1016.6 |
| 20260906152047 | 90 | 102 | 3.0 | 5.0 | 0.00 | 0.00 | 0.00 | 64 | 1016.6 |
| 20260906151031 | 89 | 89 | 4.0 | 5.0 | 0.00 | 0.00 | 0.00 | 66 | 1016.5 |
| 20260906150016 | 90 | 94 | 3.0 | 5.0 | 0.00 | 0.00 | 0.00 | 64 | 1016.5 |
| 20260906145018 | 88 | 141 | 2.0 | 4.0 | 0.00 | 0.00 | 0.00 | 69 | 1016.5 |
| 20260906144023 | 88 | 54 | 2.0 | 4.0 | 0.00 | 0.00 | 0.00 | 70 | 1016.3 |
| 20260906143019 | 86 | 121 | 3.0 | 5.0 | 0.00 | 0.00 | 0.00 | 72 | 1016.3 |
| 20260906142041 | 86 | 117 | 2.0 | 3.0 | 0.00 | 0.00 | 0.00 | 73 | 1016.3 |
| 20260906141031 | 86 | 104 | 3.0 | 4.0 | 0.00 | 0.00 | 0.00 | 74 | 1016.3 |
| 20260906140017 | 85 | 88 | 3.0 | 4.0 | 0.00 | 0.00 | 0.00 | 74 | 1016.1 |
| 20260906135020 | 86 | 93 | 4.0 | 5.0 | 0.00 | 0.00 | 0.00 | 73 | 1016.1 |
| 20260906134024 | 84 | 150 | 2.0 | 2.0 | 0.00 | 0.00 | 0.00 | 77 | 1016.1 |
| 20260906133027 | 83 | 86 | 2.0 | 3.0 | 0.00 | 0.00 | 0.00 | 79 | 1016.1 |
| 20260906132050 | 83 | 90 | 2.0 | 3.0 | 0.00 | 0.00 | 0.00 | 80 | 1016.1 |
| 20260906131028 | 82 | 77 | 2.0 | 3.0 | 0.00 | 0.00 | 0.00 | 81 | 1016.1 |
| 20260906130032 | 81 | 83 | 1.0 | 2.0 | 0.00 | 0.00 | 0.00 | 83 | 1015.9 |
| 20260906125021 | 81 | 53 | 2.0 | 3.0 | 0.00 | 0.00 | 0.00 | 85 | 1015.8 |
| 20260906124020 | 79 | 0.0 | 0.0 | 0.00 | 0.00 | 0.00 | 88 | 1015.8 | |
| 20260906123043 | 76 | 0.0 | 0.0 | 0.00 | 0.00 | 0.00 | 92 | 1015.7 | |
| 20260906122026 | 76 | 100 | 2.0 | 2.0 | 0.00 | 0.00 | 0.00 | 93 | 1015.7 |
| 20260906121029 | 76 | 0.0 | 0.0 | 0.00 | 0.00 | 0.00 | 92 | 1015.7 | |
| 20260906120055 | 76 | 0.0 | 0.0 | 0.00 | 0.00 | 0.00 | 91 | 1015.6 | |
| 20260906115018 | 76 | 0.0 | 0.0 | 0.00 | 0.00 | 0.00 | 90 | 1015.4 | |
| 20260906114021 | 77 | 0.0 | 0.0 | 0.00 | 0.00 | 0.00 | 90 | 1015.2 | |
| 20260906113045 | 77 | 0.0 | 0.0 | 0.00 | 0.00 | 0.00 | 90 | 1015.3 | |
| 20260906112026 | 77 | 112 | 2.0 | 3.0 | 0.00 | 0.00 | 0.00 | 89 | 1015.3 |
| 20260906111024 | 77 | 106 | 0.0 | 1.0 | 0.00 | 0.00 | 0.00 | 87 | 1015.1 |
| 20260906110015 | 77 | 0.0 | 0.0 | 0.00 | 0.00 | 0.00 | 87 | 1015.0 | |
| 20260906105019 | 77 | 98 | 1.0 | 2.0 | 0.00 | 0.00 | 0.00 | 88 | 1015.1 |
| 20260906104016 | 77 | 90 | 2.0 | 3.0 | 0.00 | 0.00 | 0.00 | 88 | 1015.0 |
| 20260906103025 | 77 | 0.0 | 0.0 | 0.00 | 0.00 | 0.00 | 87 | 1014.9 | |
| 20260906102028 | 77 | 0.0 | 0.0 | 0.00 | 0.00 | 0.00 | 87 | 1014.8 | |
| 20260906101032 | 77 | 121 | 0.0 | 1.0 | 0.00 | 0.00 | 0.00 | 87 | 1014.8 |
| 20260906100037 | 77 | 99 | 2.0 | 2.0 | 0.00 | 0.00 | 0.00 | 88 | 1014.6 |
| 20260906095020 | 77 | 57 | 1.0 | 2.0 | 0.00 | 0.00 | 0.00 | 88 | 1014.5 |
| 20260906094025 | 77 | 0.0 | 0.0 | 0.00 | 0.00 | 0.00 | 87 | 1014.4 | |
| 20260906093027 | 78 | 0.0 | 0.0 | 0.00 | 0.00 | 0.00 | 86 | 1014.4 | |
| 20260906092030 | 78 | 0.0 | 0.0 | 0.00 | 0.00 | 0.00 | 86 | 1014.4 | |
| 20260906091015 | 78 | 0.0 | 0.0 | 0.00 | 0.00 | 0.00 | 85 | 1014.3 | |
| 20260906090019 | 79 | 0.0 | 0.0 | 0.00 | 0.00 | 0.00 | 83 | 1014.3 | |
| 20260906085022 | 79 | 112 | 0.0 | 1.0 | 0.00 | 0.00 | 0.00 | 83 | 1014.3 |
| 20260906084025 | 80 | 162 | 2.0 | 2.0 | 0.00 | 0.00 | 0.00 | 82 | 1014.2 |
| 20260906083029 | 80 | 160 | 2.0 | 3.0 | 0.00 | 0.00 | 0.00 | 82 | 1014.3 |
| 20260906082032 | 80 | 158 | 2.0 | 3.0 | 0.00 | 0.00 | 0.00 | 81 | 1014.3 |
| 20260906081018 | 80 | 175 | 3.0 | 4.0 | 0.00 | 0.00 | 0.00 | 81 | 1014.4 |
| 20260906080021 | 81 | 166 | 3.0 | 4.0 | 0.00 | 0.00 | 0.00 | 80 | 1014.4 |
| 20260906075024 | 81 | 173 | 3.0 | 5.0 | 0.00 | 0.00 | 0.00 | 79 | 1014.4 |
| 20260906074027 | 81 | 163 | 4.0 | 7.0 | 0.00 | 0.00 | 0.00 | 79 | 1014.5 |
| 20260906073024 | 81 | 174 | 5.0 | 7.0 | 0.00 | 0.00 | 0.00 | 78 | 1014.5 |
| 20260906072015 | 82 | 183 | 6.0 | 8.0 | 0.00 | 0.00 | 0.00 | 78 | 1014.5 |
| 20260906071019 | 82 | 163 | 5.0 | 7.0 | 0.00 | 0.00 | 0.00 | 78 | 1014.7 |
| 20260906070041 | 82 | 153 | 4.0 | 6.0 | 0.00 | 0.00 | 0.00 | 78 | 1014.8 |
| 20260906065026 | 82 | 162 | 5.0 | 6.0 | 0.00 | 0.00 | 0.00 | 78 | 1014.8 |
| 20260906064029 | 82 | 160 | 4.0 | 7.0 | 0.00 | 0.00 | 0.00 | 78 | 1014.9 |
| 20260906063032 | 82 | 170 | 3.0 | 3.0 | 0.00 | 0.00 | 0.00 | 78 | 1015.0 |
| 20260906062017 | 83 | 156 | 3.0 | 4.0 | 0.00 | 0.00 | 0.00 | 77 | 1015.0 |
| 20260906061046 | 83 | 165 | 3.0 | 5.0 | 0.00 | 0.00 | 0.00 | 77 | 1015.0 |
| 20260906060105 | 83 | 163 | 3.0 | 4.0 | 0.00 | 0.00 | 0.00 | 76 | 1014.9 |
| 20260906055027 | 83 | 165 | 3.0 | 5.0 | 0.00 | 0.00 | 0.00 | 76 | 1014.8 |
| 20260906054031 | 83 | 163 | 3.0 | 6.0 | 0.00 | 0.00 | 0.00 | 76 | 1014.8 |
| 20260906053016 | 83 | 174 | 3.0 | 3.0 | 0.00 | 0.00 | 0.00 | 76 | 1014.8 |
| 20260906052019 | 84 | 147 | 3.0 | 4.0 | 0.00 | 0.00 | 0.00 | 75 | 1014.7 |
| 20260906051022 | 84 | 174 | 4.0 | 6.0 | 0.00 | 0.00 | 0.00 | 75 | 1014.8 |
| 20260906050031 | 83 | 174 | 3.0 | 4.0 | 0.00 | 0.00 | 0.00 | 75 | 1014.8 |
| 20260906045049 | 84 | 163 | 2.0 | 3.0 | 0.00 | 0.00 | 0.00 | 74 | 1014.8 |
| 20260906044032 | 84 | 164 | 4.0 | 5.0 | 0.00 | 0.00 | 0.00 | 74 | 1014.8 |
| 20260906043017 | 84 | 153 | 3.0 | 4.0 | 0.00 | 0.00 | 0.00 | 73 | 1014.8 |
| 20260906042025 | 84 | 157 | 3.0 | 5.0 | 0.00 | 0.00 | 0.00 | 72 | 1014.7 |
| 20260906041024 | 85 | 153 | 3.0 | 4.0 | 0.00 | 0.00 | 0.00 | 71 | 1014.7 |
| 20260906040027 | 85 | 165 | 4.0 | 6.0 | 0.00 | 0.00 | 0.00 | 70 | 1014.6 |
| 20260906035025 | 85 | 160 | 3.0 | 3.0 | 0.00 | 0.00 | 0.00 | 70 | 1014.7 |
| 20260906034016 | 85 | 177 | 3.0 | 4.0 | 0.00 | 0.00 | 0.00 | 69 | 1014.8 |
| 20260906033020 | 86 | 159 | 4.0 | 5.0 | 0.00 | 0.00 | 0.00 | 68 | 1014.8 |
| 20260906032057 | 86 | 169 | 4.0 | 6.0 | 0.00 | 0.00 | 0.00 | 68 | 1014.7 |
| 20260906031026 | 86 | 162 | 4.0 | 5.0 | 0.00 | 0.00 | 0.00 | 68 | 1014.7 |
| 20260906030029 | 86 | 155 | 4.0 | 7.0 | 0.00 | 0.00 | 0.00 | 67 | 1014.7 |
| 20260906025037 | 86 | 152 | 5.0 | 7.0 | 0.00 | 0.00 | 0.00 | 66 | 1014.6 |
| 20260906024038 | 86 | 144 | 5.0 | 8.0 | 0.00 | 0.00 | 0.00 | 66 | 1014.3 |
| 20260906023021 | 87 | 127 | 5.0 | 7.0 | 0.00 | 0.00 | 0.00 | 65 | 1014.2 |
| 20260906022024 | 87 | 122 | 5.0 | 8.0 | 0.00 | 0.00 | 0.00 | 65 | 1014.1 |
| 20260906021027 | 87 | 139 | 4.0 | 5.0 | 0.00 | 0.00 | 0.00 | 64 | 1013.9 |
| 20260906020031 | 87 | 159 | 5.0 | 7.0 | 0.00 | 0.00 | 0.00 | 64 | 1013.8 |
| 20260906015016 | 87 | 145 | 5.0 | 10.0 | 0.00 | 0.00 | 0.00 | 64 | 1013.6 |
| 20260906014024 | 88 | 141 | 5.0 | 7.0 | 0.00 | 0.00 | 0.00 | 63 | 1013.4 |
| 20260906013022 | 88 | 131 | 4.0 | 6.0 | 0.00 | 0.00 | 0.00 | 62 | 1013.3 |
| 20260906012026 | 89 | 140 | 6.0 | 11.0 | 0.00 | 0.00 | 0.00 | 61 | 1013.2 |
| 20260906011029 | 89 | 139 | 6.0 | 9.0 | 0.00 | 0.00 | 0.00 | 59 | 1013.1 |
| 20260906010033 | 90 | 119 | 5.0 | 9.0 | 0.00 | 0.00 | 0.00 | 57 | 1013.0 |
| 20260906005017 | 91 | 117 | 8.0 | 12.0 | 0.00 | 0.00 | 0.00 | 56 | 1013.1 |
| 20260906004021 | 93 | 90 | 9.0 | 13.0 | 0.00 | 0.00 | 0.00 | 54 | 1012.9 |
| 20260906003024 | 95 | 97 | 7.0 | 11.0 | 0.00 | 0.00 | 0.00 | 45 | 1012.8 |
| 20260906002047 | 96 | 92 | 4.0 | 6.0 | 0.00 | 0.00 | 0.00 | 44 | 1012.7 |
| 20260906001024 | 97 | 90 | 4.0 | 8.0 | 0.00 | 0.00 | 0.00 | 43 | 1012.6 |
| 20260906000016 | 97 | 101 | 4.0 | 6.0 | 0.00 | 0.00 | 0.00 | 43 | 1012.5 |
| 20260905235019 | 98 | 100 | 5.0 | 8.0 | 0.00 | 0.00 | 0.00 | 40 | 1012.4 |
| 20260905234043 | 98 | 146 | 3.0 | 6.0 | 0.00 | 0.00 | 0.00 | 41 | 1012.4 |
| 20260905233026 | 100 | 75 | 6.0 | 8.0 | 0.00 | 0.00 | 0.00 | 39 | 1012.4 |
| 20260905232109 | 100 | 108 | 5.0 | 10.0 | 0.00 | 0.00 | 0.00 | 38 | 1012.4 |
| 20260905231032 | 101 | 114 | 4.0 | 7.0 | 0.00 | 0.00 | 0.00 | 38 | 1012.4 |
| 20260905230017 | 101 | 108 | 2.0 | 4.0 | 0.00 | 0.00 | 0.00 | 38 | 1012.2 |
| 20260905225016 | 102 | 111 | 3.0 | 6.0 | 0.00 | 0.00 | 0.00 | 37 | 1012.2 |
| 20260905224018 | 101 | 118 | 2.0 | 4.0 | 0.00 | 0.00 | 0.00 | 38 | 1012.4 |